Weather History for PHLI - October, 2012

Change the Weather History Date:

Monday, October 15, 2012

  Actual Average Record
Temperature  
Mean Temperature 78 °F 78 °F  
Max Temperature 83 °F 84 °F 87 °F (2014)
Min Temperature 73 °F 73 °F 66 °F (1960)
Degree Days  
Heating Degree Days 0 0  
Month to date heating degree days 0 0  
Since 1 July heating degree days 0 0  
Cooling Degree Days 13 13  
Month to date cooling degree days 209 206  
Year to date cooling degree days 3272 3165  
Growing Degree Days 28 (Base 50)    
Moisture  
Dew Point 69 °F    
Average Humidity 76    
Maximum Humidity 93    
Minimum Humidity 58    
Precipitation  
Precipitation 0.04 in 0.12 in 1.20 in (1991)
Month to date precipitation 0.25 1.60  
Year to date precipitation 36.13 25.17  
Snow  
Snow 0.00 in - - ()
Month to date snowfall 0.0  
Since 1 July snowfall 0.0  
Since 1 September snowfall 0.0  
Snow Depth 0.00 in    
Sea Level Pressure  
Sea Level Pressure 30.09 in    
Wind  
Wind Speed 15 mph (ENE)    
Max Wind Speed 23 mph    
Max Gust Speed 28 mph    
Visibility 9 miles    
Events Rain    
T = Trace of Precipitation, MM = Missing Value Source: NWS Daily Summary

Daily Weather History Graph

Daily Weather History Graph

Search for Another Location

Airport or City:

Trip Planner

Search our weather history database for the weather conditions in past years. The results will help you decide how hot, cold, wet, or windy it might be!

Date:

Astronomy

Oct. 15, 2012 Rise Set
Actual Time 6:33 AM HST 6:11 PM HST
Civil Twilight 6:11 AM HST 6:34 PM HST
Nautical Twilight 5:45 AM HST 7:00 PM HST
Astronomical Twilight 5:19 AM HST 7:26 PM HST
Moon 6:49 AM HST (10/15) 6:31 PM HST (10/15)
Length of Visible Light 12h 23m
Length of Day
11h 38m
New Moon, 0% of the Moon is Illuminated
Oct 15
New Moon
Oct 21
First Quarter
Oct 29
Full
Nov 6
Last Quarter
Nov 13
New

Hourly Weather History & Observations

Time (HST) Temp. Heat Index Dew Point Humidity Pressure Visibility Wind Dir Wind Speed Gust Speed Precip Events Conditions
12:53 AM 75.9 °F - 66.9 °F 74% 30.13 in 10.0 mi ENE 16.1 mph - N/A   Partly Cloudy
1:53 AM 75.9 °F - 66.9 °F 74% 30.12 in 10.0 mi NE 15.0 mph - N/A   Clear
2:53 AM 75.0 °F - 66.9 °F 76% 30.10 in 10.0 mi NNE 15.0 mph - N/A   Clear
3:53 AM 75.9 °F - 68.0 °F 76% 30.10 in 10.0 mi NE 16.1 mph - N/A   Overcast
4:05 AM 77.0 °F - 68.0 °F 74% 30.10 in 10.0 mi NE 16.1 mph - N/A   Overcast
4:09 AM 75.2 °F - 68.0 °F 78% 30.10 in 10.0 mi ENE 18.4 mph - N/A   Overcast
4:43 AM 73.4 °F - 71.6 °F 94% 30.10 in 10.0 mi NE 10.4 mph - 0.01 in   Overcast
4:51 AM 73.4 °F - 71.6 °F 94% 30.10 in 10.0 mi ENE 8.1 mph - 0.01 in   Overcast
4:53 AM 73.9 °F - 71.1 °F 91% 30.09 in 10.0 mi NE 8.1 mph - 0.01 in   Overcast
5:00 AM 73.4 °F - 71.6 °F 94% 30.10 in 7.0 mi East 17.3 mph 21.9 mph N/A   Overcast
5:12 AM 73.4 °F - 69.8 °F 88% 30.11 in 4.0 mi ENE 17.3 mph - 0.00 in Rain Light Rain
5:26 AM - - - N/A% 30.11 in 10.0 mi NE 9.2 mph - 0.01 in   Overcast
5:53 AM - - - N/A% 30.11 in 5.0 mi NE 19.6 mph 27.6 mph 0.02 in Rain Rain
6:53 AM 72.7 °F - 69.4 °F 90% 30.10 in 10.0 mi NE 13.8 mph - 0.00 in   Scattered Clouds
7:19 AM - - - N/A% 30.11 in 5.0 mi NE 15.0 mph 23.0 mph 0.00 in Rain Light Rain
7:53 AM 75.2 °F - 70.0 °F 84% 30.12 in 7.0 mi NE 15.0 mph 24.2 mph 0.01 in Rain Light Rain
8:22 AM 75.2 °F - 71.6 °F 89% 30.13 in 10.0 mi ENE 17.3 mph - 0.00 in   Mostly Cloudy
8:53 AM 78.1 °F - 71.1 °F 79% 30.12 in 10.0 mi ENE 15.0 mph - 0.00 in   Scattered Clouds
9:53 AM 81.0 °F 84.4 °F 70.0 °F 69% 30.12 in 10.0 mi ENE 11.5 mph - N/A   Partly Cloudy
10:16 AM 78.8 °F - 69.8 °F 74% 30.13 in 10.0 mi ENE 13.8 mph - N/A   Mostly Cloudy
10:46 AM 80.6 °F 83.9 °F 69.8 °F 70% 30.12 in 10.0 mi ENE 15.0 mph 23.0 mph 0.00 in   Overcast
10:53 AM 80.1 °F 82.9 °F 69.1 °F 69% 30.11 in 10.0 mi ENE 16.1 mph - 0.00 in   Overcast
11:28 AM 80.6 °F 83.9 °F 69.8 °F 70% 30.10 in 10.0 mi ENE 15.0 mph - N/A   Overcast
11:45 AM 80.6 °F 83.2 °F 68.0 °F 65% 30.09 in 10.0 mi East 16.1 mph - N/A   Overcast
11:53 AM 82.0 °F 85.5 °F 69.1 °F 65% 30.08 in 10.0 mi East 16.1 mph - N/A   Overcast
12:53 PM 82.0 °F 84.5 °F 66.9 °F 60% 30.05 in 10.0 mi ENE 15.0 mph - N/A   Clear
1:53 PM 82.9 °F 85.4 °F 66.9 °F 58% 30.03 in 10.0 mi ENE 12.7 mph - N/A   Clear
2:53 PM 81.0 °F 83.8 °F 68.0 °F 65% 30.02 in 10.0 mi ENE 13.8 mph - N/A   Partly Cloudy
3:53 PM 81.0 °F 83.3 °F 66.9 °F 62% 30.00 in 10.0 mi NE 12.7 mph - N/A   Clear
4:53 PM 79.0 °F - 68.0 °F 69% 30.01 in 10.0 mi ENE 12.7 mph - N/A   Partly Cloudy
5:53 PM 78.1 °F - 68.0 °F 71% 30.03 in 10.0 mi NE 12.7 mph - N/A   Clear
6:53 PM 77.0 °F - 69.8 °F 78% 30.05 in 10.0 mi NNE 9.2 mph - N/A   Partly Cloudy
7:53 PM 77.0 °F - 68.0 °F 74% 30.05 in 10.0 mi NE 12.7 mph - N/A   Clear
8:53 PM 77.0 °F - 69.1 °F 76% 30.07 in 10.0 mi ENE 9.2 mph - N/A   Scattered Clouds
9:53 PM 77.0 °F - 68.0 °F 74% 30.07 in 10.0 mi ENE 12.7 mph - N/A   Scattered Clouds
10:53 PM 75.9 °F - 70.0 °F 82% 30.05 in 10.0 mi ENE 15.0 mph - N/A   Partly Cloudy
11:53 PM 77.0 °F - 69.1 °F 76% 30.05 in 10.0 mi ENE 12.7 mph - N/A   Mostly Cloudy